Location: Launay
(47.2429°N, 1.5727°E)
Time: 09:11:10
(UTC+00:00)

Cosmos 1470 - Visible Passes

Search period start: 10 April 2026 00:00
Search period end: 20 April 2026 00:00
Orbit: 427 x 434 km, 82.5° (Epoch: 10 April)

Date Brightness Start Highest point End Pass type
(mag) Time Alt. Az. Time Alt. Az. Time Alt. Az.
10 Apr 2.4 03:37:48 10° N 03:41:11 78° E 03:44:31 10° SSE visible
11 Apr 4.4 02:56:37 10° NNE 02:59:35 28° ENE 03:02:31 10° SE visible
11 Apr 3.9 04:31:03 10° NW 04:33:19 17° W 04:35:35 10° SW visible
12 Apr 5.5 02:16:19 10° NE 02:17:46 12° ENE 02:19:12 10° E visible
12 Apr 2.6 03:48:47 10° NNW 03:52:00 43° W 03:54:33 15° SSW visible
13 Apr 2.7 03:07:08 10° N 03:10:29 63° E 03:12:27 22° SSE visible
14 Apr 4.6 02:25:58 10° NNE 02:28:44 24° ENE 02:30:28 16° ESE visible
14 Apr 3.7 04:00:02 10° NW 04:02:35 20° W 04:03:41 17° WSW visible
15 Apr 5.6 01:46:19 10° ENE 01:46:48 10° ENE 01:47:18 10° ENE visible
15 Apr 2.4 03:17:50 10° NNW 03:21:08 54° W 03:21:48 44° SW visible
16 Apr 3.1 02:36:12 10° N 02:39:29 50° ENE 02:39:58 45° ESE visible
17 Apr 4.7 01:55:05 10° NNE 01:57:38 20° ENE 01:58:10 19° E visible
17 Apr 3.6 03:28:47 10° NW 03:31:23 24° W 03:31:23 24° W visible
18 Apr 2.5 02:46:39 10° NNW 02:49:37 60° NW 02:49:37 60° NW visible
19 Apr 3.7 02:05:02 10° N 02:07:51 38° ENE 02:07:51 38° ENE visible
19 Apr 4.6 03:40:23 10° WNW 03:41:04 12° WNW 03:41:04 12° WNW visible
